Caribou, ME

10:06 AM EDT on July 24, 2017 (GMT -0400)
Caribou Municipal

Weather History for KCAR - February, 2014

Change the Weather History Date:

Wednesday, February 26, 2014

  Actual Average Record
Temperature  
Mean Temperature 5 °F 18 °F  
Max Temperature 17 °F 28 °F 46 °F (2017)
Min Temperature -7 °F 8 °F -18 °F (1943)
Degree Days  
Heating Degree Days 60 47  
Month to date heating degree days 1333 1332  
Since 1 July heating degree days 6530 6626  
Cooling Degree Days 0 0  
Month to date cooling degree days 0 0  
Year to date cooling degree days 0 0  
Moisture  
Dew Point -1 °F    
Average Humidity 65    
Maximum Humidity 84    
Minimum Humidity 46    
Precipitation  
Precipitation 0.02 in 0.08 in 0.80 in (1960)
Month to date precipitation 2.23 2.04  
Year to date precipitation 6.22 4.75  
Snow  
Snow 0.40 in 0.80 in 13.70 in (1960)
Month to date snowfall 27.2 20.7  
Since 1 July snowfall 99.3 81.0  
Snow Depth 21.00 in    
Sea Level Pressure  
Sea Level Pressure 29.74 in    
Wind  
Wind Speed 5 mph (SW)    
Max Wind Speed 14 mph    
Max Gust Speed 22 mph    
Visibility 8 miles    
Events Snow    
T = Trace of Precipitation, MM = Missing Value Source: NWS Daily Summary

Daily Weather History Graph

Daily Weather History Graph

Search for Another Location

Airport or City:

Trip Planner

Search our weather history database for the weather conditions in past years. The results will help you decide how hot, cold, wet, or windy it might be!

Date:

Astronomy

Feb. 26, 2014 Rise Set
Actual Time 6:17 AM EST 5:13 PM EST
Civil Twilight 5:46 AM EST 5:43 PM EST
Nautical Twilight 5:11 AM EST 6:19 PM EST
Astronomical Twilight 4:36 AM EST 6:54 PM EST
Moon 4:09 AM EST (2/26) 2:16 PM EST (2/26)
Length of Visible Light 11h 57m
Length of Day
10h 55m
Waning Crescent, 10% of the Moon is Illuminated
Feb 26
Waning Crescent
Mar 1
New
Mar 8
First Quarter
Mar 16
Full
Mar 23
Last Quarter

Hourly Weather History & Observations

Time (EST) Temp. Windchill Dew Point Humidity Pressure Visibility Wind Dir Wind Speed Gust Speed Precip Events Conditions
12:54 AM -0.9 °F -11.0 °F -7.1 °F 75% 29.79 in 10.0 mi West 4.6 mph - N/A   Clear
1:54 AM -0.9 °F -8.9 °F -7.1 °F 75% 29.79 in 10.0 mi West 3.5 mph - N/A   Clear
2:54 AM -2.9 °F -13.3 °F -7.1 °F 82% 29.79 in 10.0 mi West 4.6 mph - N/A   Clear
3:54 AM -4.0 °F -14.6 °F -9.0 °F 79% 29.79 in 10.0 mi SW 4.6 mph - N/A   Clear
4:54 AM -2.9 °F -16.5 °F -8.0 °F 79% 29.80 in 10.0 mi WSW 6.9 mph - N/A   Clear
5:54 AM -5.1 °F -20.4 °F -9.0 °F 83% 29.80 in 10.0 mi WSW 8.1 mph - N/A   Clear
6:54 AM -6.0 °F - -11.0 °F 79% 29.80 in 10.0 mi Calm Calm - N/A   Partly Cloudy
7:54 AM -2.9 °F -13.3 °F -7.1 °F 82% 29.80 in 10.0 mi SW 4.6 mph - N/A   Mostly Cloudy
8:54 AM -0.0 °F -9.9 °F -4.0 °F 83% 29.80 in 10.0 mi South 4.6 mph - N/A   Clear
9:54 AM 5.0 °F -2.1 °F -2.0 °F 73% 29.79 in 10.0 mi SSW 3.5 mph - N/A   Clear
10:54 AM 10.0 °F -0.9 °F -2.0 °F 58% 29.77 in 10.0 mi West 6.9 mph - N/A   Clear
11:13 AM 10.9 °F 0.2 °F -0.9 °F 59% 29.71 in 10.0 mi WSW 6.9 mph - N/A   Mostly Cloudy
11:45 AM 12.9 °F 6.9 °F -0.9 °F 54% 29.70 in 10.0 mi Variable 3.5 mph - N/A   Mostly Cloudy
11:54 AM 14.0 °F 2.9 °F -0.9 °F 52% 29.75 in 10.0 mi WSW 8.1 mph - N/A   Overcast
12:54 PM 14.0 °F 3.9 °F -2.0 °F 49% 29.72 in 10.0 mi Variable 6.9 mph - N/A   Mostly Cloudy
1:54 PM 16.0 °F 6.3 °F -2.0 °F 45% 29.70 in 10.0 mi South 6.9 mph - N/A   Mostly Cloudy
2:54 PM 16.0 °F 6.3 °F -0.0 °F 49% 29.69 in 10.0 mi South 6.9 mph - N/A   Mostly Cloudy
3:54 PM 16.0 °F 6.3 °F -0.0 °F 49% 29.69 in 10.0 mi SSE 6.9 mph - N/A   Overcast
4:54 PM 15.1 °F 9.4 °F -0.0 °F 51% 29.69 in 10.0 mi ESE 3.5 mph - N/A   Mostly Cloudy
5:54 PM 15.1 °F - -0.0 °F 51% 29.70 in 10.0 mi Calm Calm - N/A   Overcast
6:23 PM 15.1 °F 7.7 °F 1.0 °F 54% 29.65 in 5.0 mi Variable 4.6 mph - 0.00 in Snow Light Snow
6:29 PM 14.0 °F 6.5 °F 1.9 °F 59% 29.66 in 1.8 mi South 4.6 mph - 0.00 in Snow Light Snow
6:37 PM 14.0 °F - 5.0 °F 67% 29.66 in 1.0 mi Calm Calm - 0.01 in Snow Light Snow
6:54 PM 12.9 °F 5.2 °F 7.0 °F 77% 29.71 in 0.8 mi SE 4.6 mph - 0.01 in Snow Light Snow
7:04 PM 12.9 °F 3.8 °F 8.1 °F 81% 29.65 in 1.0 mi SE 5.8 mph - 0.01 in Snow Light Snow
7:08 PM 12.9 °F 2.6 °F 8.1 °F 81% 29.65 in 2.5 mi South 6.9 mph - 0.01 in Snow Light Snow
7:12 PM 14.0 °F 5.1 °F 9.0 °F 80% 29.66 in 7.0 mi SSW 5.8 mph - 0.01 in Snow Light Snow
7:44 PM 12.9 °F 3.8 °F 8.1 °F 81% 29.67 in 2.5 mi West 5.8 mph - 0.01 in Snow Light Snow
7:54 PM 12.9 °F -0.2 °F 8.1 °F 81% 29.74 in 2.0 mi West 10.4 mph 17.3 mph 0.01 in Snow Light Snow
8:06 PM 12.9 °F 2.6 °F 6.1 °F 74% 29.69 in 9.0 mi West 6.9 mph - 0.00 in   Overcast
8:54 PM 10.9 °F -2.6 °F 1.0 °F 64% 29.76 in 10.0 mi West 10.4 mph - 0.00 in   Overcast
9:54 PM 9.0 °F -0.9 °F -0.0 °F 67% 29.77 in 10.0 mi West 5.8 mph - N/A   Overcast
10:54 PM 3.9 °F - -4.0 °F 70% 29.78 in 10.0 mi Calm Calm - N/A   Partly Cloudy
11:54 PM 1.9 °F -9.2 °F -4.0 °F 76% 29.78 in 10.0 mi SW 5.8 mph - N/A   Clear